Kosmos-385

operational
NORAD ID: 4799 Int'l Des: 1970-108 Owner: OKB10 Country: SU
LEOCIRCULAR

关于 Kosmos-385

正在加载描述...

实时位置

正在加载3D地球...

即将过境

高度历史

Altitude vs Time

uPlot chart will show altitude changes over time

两行轨道根数

1 04799U 70108A 26062.62049740 .00000007 00000-0 29714-4 0 9997
2 04799 74.0209 205.5649 0003769 186.9235 254.3988 13.76973249774023
Epoch: Mar 3, 2026 • Age: 39 hours

当前状态

高度 986.5 km
速度 7.36 km/s
星下点 63.73°N, 151.89°W
类型 other

大型星座

Loading constellations...